COSMOS 1275 DEB, 12674

Orbit data source: Space-Track

COSMOS 1275 DEB, 12674 is space debris in LEO originally from a launch on Thu, 04 Jun 1981 UTC launched from the Plesetsk Missile And Space Complex (PKMTR). Debris objects in space refer to the collection of defunct objects orbiting the Earth. Examples of debris include non-operational satellites, rocket bodies, and fragments generated from explosions, collisions, or faulty payload assembly.

Loading next visibility...
Identifier
12674, 1981-053AE
Orbit
LEO
Country
Flag of CISCIS
Related business
Manufacturer
Unknown
Mission
Spacecraft
Bus & Motor
Unknown
Mass
Unknown
Launch date (UTC)
1981-06-04 (44 years ago)
Launch vehicle
Unknown
Launch site
Plesetsk Missile And Space Complex (PKMTR)
Object type
Payload
Rocket body
Debris
Shape & HBR
Unknown
Radar Cross Section
Medium (>0.1 m² and <1 m²)

Expand to show TLE details & history
Last TLE update: 12 hours ago

TLE from 12 hours ago
0 COSMOS 1275 DEB
1 12674U 81053AE  25242.67729200  .00000901  00000-0  89706-3 0  9998
2 12674  82.9342 221.7348 0103368  73.3968 102.0320 13.74690685199909
Epoch: 2025-08-30T16:15Z
TLE epoch observation values (Epoch: 2025-08-30T16:15:18.028Z)
Latitude
3.29521°
Longitude
178.39475°
Altitude
1,001.925 km
Speed
7.343 km/s
True Right ascension
02h 45m 18s
True Declination
3° 16' 34"
Sunlit
Object was in daylight at epoch
Visualization orbit readout
Latitude
Unknown
Longitude
Unknown
Altitude
Unknown
Speed
Unknown
Apparent Right ascension
Unknown
Apparent Declination
Unknown
Sunlit
N/A
Visualization observer readout
Local Sidereal Time
20:14:02
Azimuth
Unknown
Elevation
Unknown
Doppler factor
Unknown
Orbital elements
Apogee altitude
1,055.987 km
Perigee altitude
903.869 km
Semi-major axis
7,358.065 km
Eccentricity
0.01034
Inclination
82.9342°
RAAN
221.7348°
Arg. of periapsis
73.3968°
True anomaly
103.1873°
Mean anomaly
102.032°
Eccentric anomaly
102.60997°
Mean motion
3.43873 °/min
Orbital period
104.69 mins
BSTAR
0.00089706
Loading maneuver chart data...
Computing Atmospheric mass density...
Loading historical data...
Loading historical data...
Loading historical data...
Loading historical data...
Loading historical data...
Loading historical data...
Loading historical data...

Documentation

Showing up to 5 results
|